METEOR 2-6 DEB, 31406

Orbit data source: Space-Track

METEOR 2-6 DEB, 31406 is space debris in LEO originally from a launch on Tue, 09 Sep 1980 UTC launched from the Plesetsk Missile And Space Complex (PKMTR). Debris objects in space refer to the collection of defunct objects orbiting the Earth. Examples of debris include non-operational satellites, rocket bodies, and fragments generated from explosions, collisions, or faulty payload assembly.

Loading next visibility...
METEOR 2-6 DEB details
Identifier
31406, 1980-073H
Orbit
LEO
Last TLE update19 hours ago
Origin
Flag of CISKVR (CIS)
ManufacturerUnknown
MissionSpacecraft
Bus & MotorUnknown
MassUnknown
Launch date (UTC)
1980-09-09 (44 years ago)
Launch vehicleUnknown
Launch site
Plesetsk Missile And Space Complex (PKMTR)
Object type
Payload
Rocket body
Debris
Shape & HBRUnknown
Radar Cross SectionSmall (<0.1 m²)

Expand to show TLE details & history

TLE from 19 hours ago
0 METEOR 2-6 DEB
1 31406U 80073H   24360.71142325  .00023687  00000-0  75634-2 0  9995
2 31406  81.2158 155.7474 0043273 318.2387  41.5499 14.39029354 29985
Epoch: 2024-12-25T17:04Z
Definitive object data (Epoch: 2024-12-25T17:04:26.968Z)
Latitude-0.00005°
Longitude164.93378°
Altitude741.578 km
Speed7.496 km/s
True Right ascension10h 22m 59s
True Declination0° 00' 00"
Sunlit
Object was in partial shadow at TLE epoch
Visualization TLE readout
Latitude-44.86063°
Longitude-7.09553°
Altitude779.027 km
Speed7.463 km/s
Apparent Right ascension23h 22m 01s
Apparent Declination-42° 33' 32"
Sunlit
Object is in daylight
Visualization observer readout
Local Sidereal Time11:50:10
Azimuth118.821° SE
Elevation-84.086°
Doppler factor1
Orbital elements
Apogee altitude789.728 km
Perigee altitude727.96 km
Semi-major axis7,136.981 km
Eccentricity0.0043273
Inclination81.2158°
RAAN155.7474°
Arg. of periapsis318.2387°
True anomaly41.88013°
Mean anomaly41.5499°
Eccentric anomaly41.71488°
Mean motion3.59974 °/min
BSTAR0.0075634
Orbital period100.01 mins
Loading maneuver chart data...
Loading historical data...
Loading historical data...
Loading historical data...
Loading historical data...
Loading historical data...
Loading historical data...
Loading historical data...

METEOR 2-6 DEB Visibility forecast

Observer location: undefined°, undefined

Span
Click to sort rows by Start time (UTC) header in descending order
Start Az.
Max El. time (UTC)
Max El. Az.
Max El.
End time (UTC)
End Az.
9 mins2024-12-26 22:00:39.485Z0.307° NNE2024-12-26 22:05:39.485Z100.768° ESE39.912°2024-12-26 22:09:39.485Z155.801° SSE
4 mins2024-12-26 23:44:39.485Z287.842° WNW2024-12-26 23:45:39.485Z274.816° WNW15.064°2024-12-26 23:48:39.485Z239.802° WSW
8 mins2024-12-27 10:54:39.485Z168.245° S2024-12-27 10:58:39.485Z89.226° E39.418°2024-12-27 11:02:39.485Z20.953° NNE
|